Retour au catalogue

LEMUR-2-STARLIGHT

ActifScienceSSO
NORAD 66783·PAYLOAD·🇺🇸 United States

Lancé Nov 28, 2025 depuis Vandenberg Space Force Base

Loading…

Prochains Passages (prochaines 24 heures)

TLE

FraisSource: Space-Track

Époque: Sep 13, 2026, 17:20 UTC

1 66783U 25276DX  26256.72278403  .00003812  00000-0  31165-3 0  9999
2 66783  97.5145 324.3485 0016374 187.4284 172.6700 14.99830919 43460

Suivez LEMUR-2-STARLIGHT en temps réel avec AllMySat

Download on the App Store